Powrót do katalogu

SL-8 DEB

AktywnyLEO
NORAD 37886·DEBRIS·🇷🇺 Russia

Wystrzelony Dec 17, 1971 z Plesetsk Cosmodrome

Loading…

Następne Przeloty (najbliższe 24 godziny)

TLE

Starzejące sięSource: Space-Track

Epoka: Sep 11, 2026, 12:43 UTC

1 37886U 71114E   26254.53017407  .00000097  00000-0  39455-4 0  9998
2 37886  74.0298 347.7931 0024567 310.4359  49.4652 14.39806869693694

Śledź SL-8 DEB w czasie rzeczywistym z AllMySat

Download on the App Store